STV1301 EDDK-BIKF

Flight info

Callsign STV1301
Flight time 3h 7m
Altitude 36000
Route WIPUR1R/31R WIPUR DCT DIXAT DCT EEL DCT SUTEB DCT GIBSU DCT BUDON DCT BAMRA DCT BARKU DCT RATSU/M080F360 DCT NASBU NASBU5N
Aircraft A339/H-SADE1E2E3GHIJ3J5M1P2RWXY/LB2D1

Departure

Time 2026-05-07 12:05
Airport Cologne Bonn Airport (EDDK)

Arrival

Time 2026-05-07 15:12
Airport Keflavik International Airport (BIKF)
Time Latitude Longitude Altitude Speed Heading
2026-05-07 11:40 50.87496 7.12282 247 ft 0 kts 207°
2026-05-07 11:48 50.87499 7.12284 247 ft 0 kts 208°
2026-05-07 11:48 50.87510 7.12292 247 ft 2 kts 199°
2026-05-07 11:48 50.87524 7.12297 247 ft 2 kts 181°
2026-05-07 11:48 50.87539 7.12296 247 ft 2 kts 167°
2026-05-07 11:49 50.87553 7.12288 247 ft 2 kts 153°
2026-05-07 11:49 50.87566 7.12276 247 ft 2 kts 138°
2026-05-07 11:49 50.87576 7.12258 247 ft 2 kts 124°
2026-05-07 11:49 50.87581 7.12248 247 ft 1 kts 116°
2026-05-07 11:50 50.87582 7.12244 247 ft 0 kts 116°
2026-05-07 11:54 50.87580 7.12250 247 ft 2 kts 116°
2026-05-07 11:54 50.87567 7.12289 247 ft 5 kts 116°
2026-05-07 11:54 50.87547 7.12353 247 ft 7 kts 115°
2026-05-07 11:54 50.87556 7.12429 247 ft 8 kts 46°
2026-05-07 11:55 50.87612 7.12472 247 ft 9 kts 19°
2026-05-07 11:55 50.87680 7.12507 247 ft 10 kts 18°
2026-05-07 11:55 50.87748 7.12561 247 ft 11 kts 50°
2026-05-07 11:55 50.87763 7.12681 247 ft 12 kts 107°
2026-05-07 11:56 50.87712 7.12787 247 ft 12 kts 136°
2026-05-07 11:56 50.87644 7.12883 247 ft 13 kts 137°
2026-05-07 11:56 50.87573 7.12985 247 ft 14 kts 137°
2026-05-07 11:56 50.87499 7.13093 247 ft 15 kts 137°
2026-05-07 11:57 50.87415 7.13214 247 ft 17 kts 137°
2026-05-07 11:57 50.87323 7.13349 247 ft 18 kts 137°
2026-05-07 11:57 50.87228 7.13485 248 ft 18 kts 137°
2026-05-07 11:57 50.87141 7.13610 250 ft 16 kts 137°
2026-05-07 11:58 50.87060 7.13726 253 ft 15 kts 137°
2026-05-07 11:58 50.86970 7.13858 255 ft 18 kts 137°
2026-05-07 11:58 50.86882 7.13986 259 ft 15 kts 137°
2026-05-07 11:58 50.86804 7.14093 262 ft 14 kts 145°
2026-05-07 11:59 50.86717 7.14170 265 ft 14 kts 144°
2026-05-07 11:59 50.86637 7.14279 269 ft 14 kts 137°
2026-05-07 11:59 50.86548 7.14407 271 ft 20 kts 137°
2026-05-07 11:59 50.86443 7.14560 275 ft 18 kts 137°
2026-05-07 12:00 50.86360 7.14681 280 ft 15 kts 137°
2026-05-07 12:00 50.86280 7.14797 284 ft 15 kts 137°
2026-05-07 12:00 50.86198 7.14916 286 ft 16 kts 137°
2026-05-07 12:00 50.86107 7.15046 288 ft 18 kts 138°
2026-05-07 12:01 50.86008 7.15188 290 ft 19 kts 137°
2026-05-07 12:01 50.85909 7.15332 291 ft 19 kts 137°
2026-05-07 12:01 50.85810 7.15475 290 ft 19 kts 137°
2026-05-07 12:01 50.85711 7.15620 290 ft 19 kts 137°
2026-05-07 12:02 50.85616 7.15757 293 ft 16 kts 137°
2026-05-07 12:02 50.85538 7.15870 298 ft 13 kts 137°
2026-05-07 12:02 50.85472 7.15966 301 ft 13 kts 137°
2026-05-07 12:02 50.85399 7.16072 304 ft 14 kts 137°
2026-05-07 12:03 50.85342 7.16200 307 ft 13 kts 108°
2026-05-07 12:03 50.85345 7.16345 311 ft 13 kts 71°
2026-05-07 12:03 50.85395 7.16460 315 ft 12 kts 40°
2026-05-07 12:03 50.85477 7.16514 316 ft 13 kts
2026-05-07 12:04 50.85569 7.16493 314 ft 13 kts 325°
2026-05-07 12:04 50.85648 7.16386 311 ft 16 kts 317°
2026-05-07 12:04 50.85771 7.16211 307 ft 44 kts 318°
2026-05-07 12:04 50.86154 7.15658 298 ft 103 kts 317°
2026-05-07 12:05 50.86812 7.14699 280 ft 152 kts 317°
2026-05-07 12:05 50.87685 7.13442 415 ft 179 kts 316°
2026-05-07 12:05 50.88591 7.12144 1006 ft 176 kts 318°
2026-05-07 12:05 50.89640 7.11243 1587 ft 176 kts 354°
2026-05-07 12:06 50.90860 7.11645 1876 ft 190 kts 25°
2026-05-07 12:06 50.92083 7.12652 2143 ft 206 kts 26°
2026-05-07 12:06 50.93367 7.13782 2495 ft 219 kts 39°
2026-05-07 12:06 50.94292 7.15802 2784 ft 239 kts 63°
2026-05-07 12:07 50.94995 7.18278 3137 ft 255 kts 64°
2026-05-07 12:07 50.95738 7.20848 3748 ft 260 kts 63°
2026-05-07 12:07 50.96614 7.23316 4438 ft 259 kts 46°
2026-05-07 12:07 50.98066 7.24928 5102 ft 259 kts 19°
2026-05-07 12:08 50.99780 7.25745 5787 ft 260 kts 14°
2026-05-07 12:08 51.01518 7.26522 6457 ft 263 kts 14°
2026-05-07 12:08 51.03275 7.27313 7107 ft 265 kts 13°
2026-05-07 12:08 51.05102 7.27593 7730 ft 268 kts 354°
2026-05-07 12:09 51.06905 7.26910 8369 ft 270 kts 340°
2026-05-07 12:09 51.08673 7.25871 8995 ft 274 kts 339°
2026-05-07 12:09 51.10455 7.24792 9613 ft 277 kts 339°
2026-05-07 12:09 51.12269 7.23700 10234 ft 281 kts 339°
2026-05-07 12:10 51.14129 7.22590 10606 ft 294 kts 339°
2026-05-07 12:10 51.16090 7.21425 10919 ft 309 kts 339°
2026-05-07 12:10 51.18118 7.20225 11461 ft 315 kts 339°
2026-05-07 12:10 51.20171 7.19011 12104 ft 318 kts 339°
2026-05-07 12:11 51.22243 7.17785 12735 ft 321 kts 339°
2026-05-07 12:11 51.24332 7.16550 13343 ft 324 kts 339°
2026-05-07 12:11 51.26479 7.15450 13951 ft 328 kts 344°
2026-05-07 12:11 51.28704 7.14636 14549 ft 331 kts 349°
2026-05-07 12:12 51.30979 7.14039 15152 ft 335 kts 350°
2026-05-07 12:12 51.33280 7.13479 15747 ft 338 kts 351°
2026-05-07 12:12 51.35606 7.12919 16337 ft 341 kts 350°
2026-05-07 12:12 51.37954 7.12350 16925 ft 345 kts 350°
2026-05-07 12:13 51.40324 7.11773 17505 ft 348 kts 350°
2026-05-07 12:13 51.42715 7.11188 18079 ft 351 kts 350°
2026-05-07 12:13 51.45134 7.10595 18637 ft 355 kts 350°
2026-05-07 12:13 51.47575 7.09994 19203 ft 358 kts 350°
2026-05-07 12:14 51.50033 7.09389 19755 ft 361 kts 350°
2026-05-07 12:14 51.52518 7.08775 20301 ft 364 kts 350°
2026-05-07 12:14 51.55023 7.08156 20837 ft 367 kts 350°
2026-05-07 12:14 51.57546 7.07532 21359 ft 370 kts 350°
2026-05-07 12:15 51.60089 7.06903 21868 ft 373 kts 350°
2026-05-07 12:15 51.62655 7.06266 22363 ft 376 kts 350°
2026-05-07 12:15 51.65239 7.05624 22840 ft 379 kts 350°
2026-05-07 12:15 51.67847 7.04976 23312 ft 382 kts 350°
2026-05-07 12:16 51.70476 7.04321 23768 ft 385 kts 350°
2026-05-07 12:16 51.73123 7.03662 24219 ft 388 kts 350°
2026-05-07 12:16 51.75788 7.02996 24671 ft 390 kts 350°
2026-05-07 12:16 51.78468 7.02326 25112 ft 393 kts 350°
2026-05-07 12:17 51.81172 7.01649 25543 ft 396 kts 350°
2026-05-07 12:17 51.83889 7.00969 25958 ft 398 kts 350°
2026-05-07 12:17 51.86628 7.00282 26358 ft 401 kts 350°
2026-05-07 12:17 51.89379 6.99591 26746 ft 403 kts 350°
2026-05-07 12:18 51.92149 6.98894 27131 ft 405 kts 350°
2026-05-07 12:18 51.94931 6.98194 27511 ft 408 kts 350°
2026-05-07 12:18 51.97733 6.97488 27885 ft 410 kts 351°
2026-05-07 12:18 52.00548 6.96778 28246 ft 412 kts 351°
2026-05-07 12:19 52.03375 6.96064 28602 ft 414 kts 351°
2026-05-07 12:19 52.06219 6.95344 28955 ft 416 kts 351°
2026-05-07 12:19 52.09075 6.94621 29300 ft 418 kts 351°
2026-05-07 12:19 52.11952 6.93891 29636 ft 420 kts 351°
2026-05-07 12:20 52.14836 6.93160 29962 ft 422 kts 351°
2026-05-07 12:20 52.17733 6.92424 30288 ft 424 kts 351°
2026-05-07 12:20 52.20641 6.91684 30608 ft 425 kts 351°
2026-05-07 12:20 52.23560 6.90938 30913 ft 427 kts 351°
2026-05-07 12:21 52.26501 6.90188 31191 ft 429 kts 351°
2026-05-07 12:21 52.29445 6.89437 31462 ft 431 kts 351°
2026-05-07 12:21 52.32401 6.88680 31729 ft 433 kts 351°
2026-05-07 12:21 52.35370 6.87919 31986 ft 434 kts 351°
2026-05-07 12:22 52.38350 6.87154 32233 ft 436 kts 351°
2026-05-07 12:22 52.41343 6.86385 32478 ft 438 kts 351°
2026-05-07 12:22 52.44348 6.85611 32715 ft 440 kts 351°
2026-05-07 12:22 52.47365 6.84833 32948 ft 442 kts 351°
2026-05-07 12:23 52.50394 6.84051 33174 ft 443 kts 350°
2026-05-07 12:23 52.53433 6.83266 33396 ft 445 kts 350°
2026-05-07 12:23 52.56483 6.82475 33612 ft 446 kts 350°
2026-05-07 12:23 52.59546 6.81681 33824 ft 448 kts 350°
2026-05-07 12:24 52.62618 6.80883 34036 ft 450 kts 350°
2026-05-07 12:24 52.65701 6.80081 34237 ft 451 kts 350°
2026-05-07 12:24 52.68795 6.79275 34442 ft 453 kts 350°
2026-05-07 12:24 52.71897 6.78466 34617 ft 454 kts 350°
2026-05-07 12:25 52.75009 6.77653 34797 ft 455 kts 350°
2026-05-07 12:25 52.78128 6.76838 34984 ft 456 kts 350°
2026-05-07 12:25 52.81253 6.76019 35172 ft 456 kts 350°
2026-05-07 12:25 52.84378 6.75199 35345 ft 457 kts 350°
2026-05-07 12:26 52.87512 6.74376 35502 ft 458 kts 350°
2026-05-07 12:26 52.90650 6.73550 35655 ft 459 kts 350°
2026-05-07 12:26 52.93797 6.72720 35814 ft 460 kts 350°
2026-05-07 12:26 52.96946 6.71888 35963 ft 461 kts 350°
2026-05-07 12:27 53.00109 6.71050 36017 ft 462 kts 350°
2026-05-07 12:27 53.06437 6.69373 36032 ft 462 kts 350°
2026-05-07 12:28 53.12751 6.67599 36039 ft 461 kts 348°
2026-05-07 12:28 53.18919 6.64928 36042 ft 460 kts 341°
2026-05-07 12:29 53.23953 6.61892 36047 ft 458 kts 338°
2026-05-07 12:29 53.29858 6.58028 36040 ft 457 kts 338°
2026-05-07 12:30 53.35752 6.54151 36050 ft 456 kts 339°
2026-05-07 12:30 53.41636 6.50286 36046 ft 456 kts 339°
2026-05-07 12:30 53.44576 6.48354 35819 ft 456 kts 339°
2026-05-07 12:31 53.47518 6.46418 35911 ft 457 kts 339°
2026-05-07 12:31 53.53419 6.42529 35942 ft 457 kts 339°
2026-05-07 12:32 53.59324 6.38623 36021 ft 458 kts 339°
2026-05-07 12:32 53.65231 6.34703 36047 ft 458 kts 339°
2026-05-07 12:33 53.74098 6.28797 36077 ft 457 kts 339°
2026-05-07 12:33 53.79990 6.24862 36066 ft 457 kts 339°
2026-05-07 12:34 53.85888 6.20908 36079 ft 457 kts 339°
2026-05-07 12:34 53.91778 6.16946 36081 ft 457 kts 339°
2026-05-07 12:35 53.97662 6.12978 36092 ft 457 kts 339°
2026-05-07 12:35 54.03541 6.09001 36084 ft 457 kts 339°
2026-05-07 12:36 54.09422 6.05011 36083 ft 456 kts 339°
2026-05-07 12:36 54.15296 6.01014 36095 ft 456 kts 339°
2026-05-07 12:37 54.21157 5.97013 36095 ft 456 kts 339°
2026-05-07 12:37 54.27021 5.92996 36092 ft 456 kts 339°
2026-05-07 12:38 54.32878 5.88972 36098 ft 455 kts 339°
2026-05-07 12:38 54.38731 5.84939 36104 ft 456 kts 339°
2026-05-07 12:39 54.44586 5.80891 36101 ft 455 kts 339°
2026-05-07 12:39 54.50435 5.76836 36104 ft 455 kts 339°
2026-05-07 12:40 54.56274 5.72772 36094 ft 455 kts 339°
2026-05-07 12:40 54.62117 5.68696 36105 ft 455 kts 339°
2026-05-07 12:41 54.67955 5.64609 36103 ft 455 kts 339°
2026-05-07 12:41 54.73787 5.60514 36113 ft 454 kts 339°
2026-05-07 12:42 54.79618 5.56405 36111 ft 454 kts 339°
2026-05-07 12:42 54.85453 5.52279 36112 ft 454 kts 338°
2026-05-07 12:43 54.91282 5.48144 36109 ft 455 kts 338°
2026-05-07 12:43 54.97085 5.43904 36110 ft 455 kts 336°
2026-05-07 12:44 55.02661 5.38776 36108 ft 455 kts 329°
2026-05-07 12:44 55.07956 5.32817 36103 ft 455 kts 326°
2026-05-07 12:45 55.13200 5.26707 36104 ft 455 kts 326°
2026-05-07 12:45 55.18439 5.20589 36102 ft 454 kts 326°
2026-05-07 12:46 55.23667 5.14477 36098 ft 453 kts 326°
2026-05-07 12:46 55.28891 5.08354 36099 ft 454 kts 326°
2026-05-07 12:47 55.34109 5.02221 36103 ft 453 kts 326°
2026-05-07 12:47 55.39327 4.96067 36100 ft 453 kts 326°
2026-05-07 12:48 55.44535 4.89907 36097 ft 453 kts 326°
2026-05-07 12:48 55.49733 4.83737 36099 ft 452 kts 326°
2026-05-07 12:49 55.54928 4.77550 36096 ft 453 kts 326°
2026-05-07 12:49 55.60122 4.71348 36099 ft 452 kts 326°
2026-05-07 12:50 55.65312 4.65128 36095 ft 452 kts 326°
2026-05-07 12:50 55.70489 4.58903 36099 ft 452 kts 326°
2026-05-07 12:51 55.75667 4.52657 36097 ft 452 kts 325°
2026-05-07 12:51 55.80837 4.46400 36101 ft 452 kts 325°
2026-05-07 12:52 55.86005 4.40123 36100 ft 452 kts 325°
2026-05-07 12:52 55.91178 4.33823 36095 ft 452 kts 324°
2026-05-07 12:53 55.96346 4.27507 36097 ft 452 kts 324°
2026-05-07 12:53 56.01505 4.21180 36101 ft 452 kts 324°
2026-05-07 12:54 56.06660 4.14837 36100 ft 452 kts 324°
2026-05-07 12:54 56.11813 4.08475 36100 ft 451 kts 324°
2026-05-07 12:55 56.16959 4.02103 36101 ft 451 kts 324°
2026-05-07 12:55 56.22090 3.95727 36098 ft 450 kts 324°
2026-05-07 12:56 56.27217 3.89334 36102 ft 450 kts 324°
2026-05-07 12:56 56.32337 3.82929 36101 ft 450 kts 324°
2026-05-07 12:57 56.37441 3.76523 36102 ft 449 kts 324°
2026-05-07 12:57 56.42540 3.70102 36102 ft 449 kts 324°
2026-05-07 12:58 56.47629 3.63671 36102 ft 448 kts 323°
2026-05-07 12:58 56.52710 3.57226 36102 ft 448 kts 323°
2026-05-07 12:59 56.57790 3.50760 36101 ft 448 kts 323°
2026-05-07 12:59 56.62861 3.44285 36103 ft 447 kts 323°
2026-05-07 13:00 56.67919 3.37802 36104 ft 447 kts 323°
2026-05-07 13:00 56.72659 3.30607 36102 ft 445 kts 313°
2026-05-07 13:01 56.76716 3.22230 36102 ft 442 kts 305°
2026-05-07 13:01 56.80020 3.12857 36101 ft 441 kts 297°
2026-05-07 13:02 56.82730 3.02871 36102 ft 440 kts 295°
2026-05-07 13:02 56.85361 2.92843 36103 ft 440 kts 294°
2026-05-07 13:03 56.87986 2.82806 36099 ft 439 kts 294°
2026-05-07 13:03 56.90604 2.72772 36101 ft 439 kts 294°
2026-05-07 13:04 56.93216 2.62722 36094 ft 439 kts 294°
2026-05-07 13:04 56.95816 2.52671 36091 ft 439 kts 294°
2026-05-07 13:05 56.98409 2.42613 36091 ft 438 kts 294°
2026-05-07 13:05 57.00993 2.32536 36089 ft 438 kts 294°
2026-05-07 13:06 57.03567 2.22455 36088 ft 438 kts 294°
2026-05-07 13:06 57.06132 2.12363 36086 ft 438 kts 294°
2026-05-07 13:07 57.08692 2.02248 36081 ft 438 kts 293°
2026-05-07 13:07 57.11239 1.92138 36083 ft 438 kts 293°
2026-05-07 13:08 57.13779 1.82011 36074 ft 438 kts 293°
2026-05-07 13:08 57.16308 1.71881 36072 ft 437 kts 293°
2026-05-07 13:09 57.18830 1.61728 36068 ft 437 kts 293°
2026-05-07 13:09 57.21342 1.51573 36065 ft 437 kts 293°
2026-05-07 13:10 57.23843 1.41413 36065 ft 437 kts 293°
2026-05-07 13:10 57.26334 1.31243 36064 ft 436 kts 292°
2026-05-07 13:11 57.28818 1.21057 36061 ft 437 kts 292°
2026-05-07 13:11 57.31294 1.10862 36057 ft 437 kts 292°
2026-05-07 13:12 57.33762 1.00642 36052 ft 437 kts 292°
2026-05-07 13:12 57.36221 0.90421 36050 ft 436 kts 291°
2026-05-07 13:13 57.38668 0.80191 36046 ft 436 kts 291°
2026-05-07 13:13 57.41106 0.69960 36042 ft 436 kts 291°
2026-05-07 13:14 57.43537 0.59702 36039 ft 436 kts 291°
2026-05-07 13:14 57.45956 0.49455 36034 ft 435 kts 291°
2026-05-07 13:15 57.48363 0.39202 36035 ft 435 kts 291°
2026-05-07 13:15 57.50767 0.28915 36033 ft 434 kts 290°
2026-05-07 13:16 57.53155 0.18647 36027 ft 434 kts 290°
2026-05-07 13:16 57.55531 0.08381 36029 ft 434 kts 290°
2026-05-07 13:17 57.57898 -0.01900 36023 ft 434 kts 290°
2026-05-07 13:17 57.60258 -0.12196 36023 ft 434 kts 290°
2026-05-07 13:18 57.62607 -0.22504 36015 ft 433 kts 290°
2026-05-07 13:18 57.64943 -0.32806 36013 ft 433 kts 290°
2026-05-07 13:19 57.67347 -0.43057 36007 ft 434 kts 293°
2026-05-07 13:19 57.70293 -0.52874 36001 ft 436 kts 299°
2026-05-07 13:20 57.73852 -0.62060 35996 ft 440 kts 306°
2026-05-07 13:20 57.78008 -0.70522 35992 ft 443 kts 310°
2026-05-07 13:21 57.82390 -0.78571 35986 ft 443 kts 310°
2026-05-07 13:21 57.86780 -0.86615 35980 ft 443 kts 310°
2026-05-07 13:22 57.91156 -0.94678 35975 ft 443 kts 310°
2026-05-07 13:22 57.95522 -1.02758 35977 ft 443 kts 310°
2026-05-07 13:23 57.99886 -1.10866 35966 ft 442 kts 310°
2026-05-07 13:23 58.04240 -1.18987 35968 ft 442 kts 310°
2026-05-07 13:24 58.08590 -1.27128 35962 ft 442 kts 310°
2026-05-07 13:24 58.12938 -1.35299 35956 ft 443 kts 310°
2026-05-07 13:25 58.17275 -1.43475 35958 ft 442 kts 310°
2026-05-07 13:25 58.21613 -1.51685 35949 ft 443 kts 310°
2026-05-07 13:26 58.25947 -1.59920 35944 ft 443 kts 309°
2026-05-07 13:26 58.30274 -1.68166 35947 ft 442 kts 309°
2026-05-07 13:27 58.34584 -1.76415 35939 ft 442 kts 309°
2026-05-07 13:27 58.38896 -1.84693 35935 ft 443 kts 308°
2026-05-07 13:28 58.43199 -1.92989 35926 ft 442 kts 308°
2026-05-07 13:28 58.47505 -2.01317 35918 ft 442 kts 308°
2026-05-07 13:29 58.51802 -2.09664 35904 ft 443 kts 308°
2026-05-07 13:29 58.56098 -2.18036 35903 ft 443 kts 308°
2026-05-07 13:30 58.60385 -2.26424 35903 ft 442 kts 308°
2026-05-07 13:30 58.64661 -2.34822 35893 ft 443 kts 308°
2026-05-07 13:31 58.68944 -2.43264 35879 ft 443 kts 308°
2026-05-07 13:31 58.73219 -2.51720 35878 ft 443 kts 308°
2026-05-07 13:32 58.77488 -2.60200 35878 ft 443 kts 308°
2026-05-07 13:32 58.81757 -2.68713 35886 ft 444 kts 307°
2026-05-07 13:33 58.86019 -2.77237 35879 ft 443 kts 307°
2026-05-07 13:33 58.90270 -2.85772 35876 ft 443 kts 307°
2026-05-07 13:34 58.96642 -2.98637 35863 ft 443 kts 307°
2026-05-07 13:35 59.00880 -3.07227 35848 ft 442 kts 307°
2026-05-07 13:35 59.05111 -3.15838 35847 ft 443 kts 307°
2026-05-07 13:36 59.09336 -3.24474 35839 ft 444 kts 307°
2026-05-07 13:36 59.13562 -3.33140 35831 ft 443 kts 307°
2026-05-07 13:37 59.17786 -3.41839 35835 ft 444 kts 307°
2026-05-07 13:37 59.21996 -3.50544 35833 ft 443 kts 307°
2026-05-07 13:38 59.26201 -3.59274 35821 ft 443 kts 307°
2026-05-07 13:38 59.30399 -3.68020 35817 ft 443 kts 306°
2026-05-07 13:38 59.32495 -3.72403 36091 ft 443 kts 306°
2026-05-07 13:39 59.34586 -3.76786 35726 ft 441 kts 306°
2026-05-07 13:39 59.36668 -3.81151 35936 ft 441 kts 306°
2026-05-07 13:39 59.38713 -3.85575 35877 ft 438 kts 303°
2026-05-07 13:40 59.42407 -3.94923 35833 ft 433 kts 297°
2026-05-07 13:40 59.45552 -4.04874 35808 ft 427 kts 292°
2026-05-07 13:41 59.48192 -4.15250 35807 ft 426 kts 289°
2026-05-07 13:41 59.50716 -4.25731 35801 ft 427 kts 289°
2026-05-07 13:42 59.53234 -4.36257 35799 ft 427 kts 289°
2026-05-07 13:42 59.55750 -4.46819 35800 ft 427 kts 289°
2026-05-07 13:43 59.58255 -4.57370 35795 ft 427 kts 289°
2026-05-07 13:43 59.60755 -4.67959 35790 ft 428 kts 288°
2026-05-07 13:44 59.63250 -4.78576 35787 ft 428 kts 288°
2026-05-07 13:44 59.65738 -4.89206 35793 ft 428 kts 288°
2026-05-07 13:45 59.68218 -4.99866 35786 ft 430 kts 288°
2026-05-07 13:45 59.70698 -5.10571 35763 ft 430 kts 288°
2026-05-07 13:46 59.73171 -5.21309 35771 ft 430 kts 288°
2026-05-07 13:46 59.75637 -5.32058 35778 ft 431 kts 288°
2026-05-07 13:47 59.78101 -5.42865 35765 ft 433 kts 288°
2026-05-07 13:47 59.80561 -5.53706 35738 ft 433 kts 288°
2026-05-07 13:48 59.83013 -5.64562 35758 ft 433 kts 288°
2026-05-07 13:48 59.85458 -5.75449 35739 ft 433 kts 287°
2026-05-07 13:49 59.87898 -5.86364 35738 ft 434 kts 287°
2026-05-07 13:49 59.90334 -5.97318 35721 ft 436 kts 287°
2026-05-07 13:50 59.92769 -6.08332 35732 ft 437 kts 287°
2026-05-07 13:50 59.95197 -6.19367 35726 ft 437 kts 287°
2026-05-07 13:51 59.97619 -6.30426 35698 ft 437 kts 287°
2026-05-07 13:51 60.00034 -6.41532 35703 ft 439 kts 288°
2026-05-07 13:52 60.02445 -6.52660 35701 ft 438 kts 288°
2026-05-07 13:52 60.04850 -6.63823 35681 ft 440 kts 288°
2026-05-07 13:53 60.07250 -6.75030 35685 ft 440 kts 287°
2026-05-07 13:53 60.09643 -6.86261 35679 ft 441 kts 287°
2026-05-07 13:54 60.12035 -6.97550 35669 ft 443 kts 288°
2026-05-07 13:54 60.14424 -7.08876 35675 ft 443 kts 287°
2026-05-07 13:55 60.16802 -7.20224 35670 ft 444 kts 288°
2026-05-07 13:55 60.19177 -7.31609 35649 ft 444 kts 288°
2026-05-07 13:56 60.21545 -7.43031 35665 ft 445 kts 288°
2026-05-07 13:56 60.23906 -7.54486 35656 ft 446 kts 288°
2026-05-07 13:57 60.26259 -7.65969 35655 ft 447 kts 287°
2026-05-07 13:57 60.28608 -7.77491 35659 ft 446 kts 287°
2026-05-07 13:58 60.30945 -7.89029 35641 ft 447 kts 287°
2026-05-07 13:58 60.33280 -8.00613 35636 ft 448 kts 287°
2026-05-07 13:59 60.35607 -8.12223 35632 ft 449 kts 287°
2026-05-07 13:59 60.37927 -8.23875 35631 ft 449 kts 287°
2026-05-07 14:00 60.40241 -8.35554 35621 ft 450 kts 287°
2026-05-07 14:00 60.42546 -8.47271 35621 ft 451 kts 288°
2026-05-07 14:01 60.44848 -8.59036 35617 ft 452 kts 288°
2026-05-07 14:01 60.47141 -8.70828 35608 ft 453 kts 287°
2026-05-07 14:02 60.49428 -8.82652 35600 ft 453 kts 287°
2026-05-07 14:02 60.51704 -8.94501 35606 ft 453 kts 287°
2026-05-07 14:03 60.53974 -9.06390 35584 ft 455 kts 287°
2026-05-07 14:03 60.56236 -9.18315 35581 ft 455 kts 287°
2026-05-07 14:04 60.58812 -9.30043 35582 ft 460 kts 295°
2026-05-07 14:04 60.62383 -9.40854 35573 ft 467 kts 305°
2026-05-07 14:05 60.66915 -9.50339 35577 ft 474 kts 316°
2026-05-07 14:05 60.72156 -9.58448 35572 ft 476 kts 321°
2026-05-07 14:06 60.77525 -9.66305 35582 ft 477 kts 320°
2026-05-07 14:06 60.82865 -9.74202 35582 ft 476 kts 320°
2026-05-07 14:07 60.88194 -9.82161 35576 ft 477 kts 320°
2026-05-07 14:07 60.93510 -9.90167 35580 ft 476 kts 319°
2026-05-07 14:08 60.98507 -9.98935 35577 ft 473 kts 312°
2026-05-07 14:08 61.02958 -10.08745 35569 ft 470 kts 306°
2026-05-07 14:09 61.06885 -10.19379 35570 ft 468 kts 302°
2026-05-07 14:09 61.10671 -10.30237 35563 ft 468 kts 302°
2026-05-07 14:10 61.14450 -10.41118 35595 ft 468 kts 302°
2026-05-07 14:10 61.18227 -10.52009 35591 ft 468 kts 303°
2026-05-07 14:11 61.21997 -10.62928 35594 ft 468 kts 303°
2026-05-07 14:11 61.25766 -10.73888 35605 ft 468 kts 302°
2026-05-07 14:12 61.29528 -10.84873 35608 ft 468 kts 302°
2026-05-07 14:12 61.33275 -10.95872 35619 ft 469 kts 302°
2026-05-07 14:13 61.37022 -11.06921 35640 ft 469 kts 302°
2026-05-07 14:13 61.40760 -11.17995 35638 ft 469 kts 302°
2026-05-07 14:14 61.44489 -11.29095 35628 ft 469 kts 303°
2026-05-07 14:14 61.48210 -11.40228 35650 ft 470 kts 303°
2026-05-07 14:15 61.51930 -11.51411 35658 ft 470 kts 303°
2026-05-07 14:15 61.55637 -11.62609 35661 ft 470 kts 303°
2026-05-07 14:16 61.59338 -11.73846 35669 ft 470 kts 302°
2026-05-07 14:16 61.63030 -11.85104 35674 ft 470 kts 302°
2026-05-07 14:17 61.66714 -11.96400 35688 ft 471 kts 303°
2026-05-07 14:17 61.70391 -12.07727 35694 ft 471 kts 303°
2026-05-07 14:18 61.74060 -12.19082 35711 ft 471 kts 303°
2026-05-07 14:18 61.77719 -12.30465 35728 ft 471 kts 303°
2026-05-07 14:19 61.81367 -12.41872 35735 ft 471 kts 303°
2026-05-07 14:19 61.85004 -12.53300 35744 ft 471 kts 303°
2026-05-07 14:20 61.88636 -12.64766 35755 ft 471 kts 303°
2026-05-07 14:20 61.92259 -12.76266 35782 ft 471 kts 302°
2026-05-07 14:21 61.95869 -12.87779 35775 ft 471 kts 302°
2026-05-07 14:21 61.99469 -12.99320 35783 ft 471 kts 302°
2026-05-07 14:22 62.03061 -13.10893 35800 ft 471 kts 302°
2026-05-07 14:22 62.06641 -13.22488 35823 ft 470 kts 302°
2026-05-07 14:23 62.10208 -13.34096 35839 ft 470 kts 302°
2026-05-07 14:23 62.13765 -13.45733 35842 ft 470 kts 303°
2026-05-07 14:24 62.17312 -13.57395 35856 ft 470 kts 303°
2026-05-07 14:24 62.20849 -13.69084 35858 ft 470 kts 302°
2026-05-07 14:25 62.24373 -13.80792 35871 ft 470 kts 302°
2026-05-07 14:25 62.27888 -13.92526 35884 ft 470 kts 302°
2026-05-07 14:26 62.31391 -14.04283 35890 ft 470 kts 302°
2026-05-07 14:26 62.34882 -14.16063 35898 ft 469 kts 302°
2026-05-07 14:27 62.38360 -14.27858 35910 ft 469 kts 302°
2026-05-07 14:27 62.41829 -14.39684 35919 ft 469 kts 302°
2026-05-07 14:28 62.45286 -14.51532 35929 ft 469 kts 302°
2026-05-07 14:28 62.48733 -14.63404 35936 ft 469 kts 302°
2026-05-07 14:29 62.52173 -14.75315 35950 ft 468 kts 301°
2026-05-07 14:29 62.55596 -14.87235 35958 ft 469 kts 301°
2026-05-07 14:30 62.59014 -14.99193 35963 ft 469 kts 301°
2026-05-07 14:30 62.62424 -15.11187 35975 ft 469 kts 301°
2026-05-07 14:31 62.65822 -15.23207 35979 ft 469 kts 301°
2026-05-07 14:31 62.69205 -15.35234 35990 ft 468 kts 301°
2026-05-07 14:32 62.72576 -15.47284 35992 ft 468 kts 301°
2026-05-07 14:32 62.75940 -15.59375 35999 ft 468 kts 301°
2026-05-07 14:33 62.79291 -15.71485 36010 ft 468 kts 301°
2026-05-07 14:33 62.82627 -15.83602 36011 ft 467 kts 301°
2026-05-07 14:34 62.85955 -15.95759 36023 ft 467 kts 301°
2026-05-07 14:34 62.89268 -16.07925 36025 ft 467 kts 301°
2026-05-07 14:35 62.92569 -16.20112 36034 ft 467 kts 301°
2026-05-07 14:35 62.95859 -16.32328 36038 ft 467 kts 301°
2026-05-07 14:36 62.99139 -16.44572 36049 ft 467 kts 301°
2026-05-07 14:36 63.02405 -16.56831 36057 ft 467 kts 301°
2026-05-07 14:37 63.05663 -16.69129 36056 ft 467 kts 300°
2026-05-07 14:37 63.10532 -16.87631 35821 ft 466 kts 300°
2026-05-07 14:38 63.12138 -16.93768 35615 ft 463 kts 300°
2026-05-07 14:38 63.13733 -16.99882 35410 ft 460 kts 300°
2026-05-07 14:38 63.15315 -17.05962 35207 ft 458 kts 300°
2026-05-07 14:38 63.16886 -17.12014 35002 ft 455 kts 300°
2026-05-07 14:39 63.18450 -17.18056 34776 ft 454 kts 300°
2026-05-07 14:39 63.20008 -17.24096 34516 ft 454 kts 301°
2026-05-07 14:39 63.21563 -17.30135 34169 ft 453 kts 301°
2026-05-07 14:39 63.23105 -17.36141 33863 ft 449 kts 301°
2026-05-07 14:40 63.24634 -17.42113 33563 ft 447 kts 301°
2026-05-07 14:40 63.26152 -17.48063 33253 ft 444 kts 301°
2026-05-07 14:40 63.27657 -17.53973 33012 ft 441 kts 301°
2026-05-07 14:40 63.29152 -17.59861 32675 ft 441 kts 301°
2026-05-07 14:41 63.30652 -17.65784 32309 ft 442 kts 300°
2026-05-07 14:41 63.32149 -17.71711 31937 ft 441 kts 300°
2026-05-07 14:41 63.33638 -17.77621 31586 ft 441 kts 301°
2026-05-07 14:41 63.35125 -17.83538 31208 ft 440 kts 301°
2026-05-07 14:42 63.36604 -17.89440 30781 ft 438 kts 301°
2026-05-07 14:42 63.38074 -17.95319 30383 ft 436 kts 301°
2026-05-07 14:42 63.39532 -18.01169 29990 ft 433 kts 301°
2026-05-07 14:42 63.40980 -18.06990 29601 ft 429 kts 301°
2026-05-07 14:43 63.42413 -18.12768 29216 ft 426 kts 301°
2026-05-07 14:43 63.43830 -18.18503 28815 ft 422 kts 301°
2026-05-07 14:43 63.45234 -18.24192 28423 ft 418 kts 301°
2026-05-07 14:43 63.46619 -18.29826 28047 ft 414 kts 301°
2026-05-07 14:44 63.47989 -18.35408 27683 ft 409 kts 301°
2026-05-07 14:44 63.49341 -18.40933 27324 ft 405 kts 301°
2026-05-07 14:44 63.50679 -18.46411 26964 ft 401 kts 301°
2026-05-07 14:44 63.51998 -18.51828 26612 ft 396 kts 301°
2026-05-07 14:45 63.53303 -18.57197 26248 ft 393 kts 301°
2026-05-07 14:45 63.54593 -18.62523 25902 ft 389 kts 301°
2026-05-07 14:45 63.55870 -18.67805 25563 ft 385 kts 301°
2026-05-07 14:45 63.57131 -18.73032 25211 ft 381 kts 301°
2026-05-07 14:46 63.58378 -18.78216 24868 ft 378 kts 301°
2026-05-07 14:46 63.59613 -18.83358 24512 ft 374 kts 301°
2026-05-07 14:46 63.60835 -18.88459 24154 ft 371 kts 301°
2026-05-07 14:46 63.62045 -18.93523 23802 ft 368 kts 301°
2026-05-07 14:47 63.63243 -18.98550 23441 ft 365 kts 301°
2026-05-07 14:47 63.64432 -19.03548 23092 ft 363 kts 301°
2026-05-07 14:47 63.65609 -19.08508 22753 ft 360 kts 301°
2026-05-07 14:47 63.66774 -19.13429 22422 ft 357 kts 301°
2026-05-07 14:48 63.67927 -19.18312 22100 ft 353 kts 301°
2026-05-07 14:48 63.69070 -19.23164 21773 ft 351 kts 301°
2026-05-07 14:48 63.70201 -19.27973 21460 ft 348 kts 301°
2026-05-07 14:48 63.71322 -19.32749 21145 ft 345 kts 301°
2026-05-07 14:49 63.72431 -19.37491 20826 ft 342 kts 301°
2026-05-07 14:49 63.73531 -19.42201 20522 ft 339 kts 301°
2026-05-07 14:49 63.74619 -19.46867 20215 ft 336 kts 301°
2026-05-07 14:49 63.75698 -19.51503 19917 ft 333 kts 301°
2026-05-07 14:50 63.76766 -19.56104 19618 ft 331 kts 301°
2026-05-07 14:50 63.77824 -19.60674 19308 ft 329 kts 301°
2026-05-07 14:50 63.78875 -19.65224 19000 ft 327 kts 301°
2026-05-07 14:50 63.79922 -19.69761 18681 ft 325 kts 301°
2026-05-07 14:51 63.80961 -19.74270 18365 ft 324 kts 300°
2026-05-07 14:51 63.81991 -19.78754 18060 ft 322 kts 300°
2026-05-07 14:51 63.83013 -19.83215 17758 ft 319 kts 300°
2026-05-07 14:51 63.84024 -19.87640 17470 ft 317 kts 301°
2026-05-07 14:52 63.85027 -19.92037 17188 ft 314 kts 301°
2026-05-07 14:52 63.86020 -19.96394 16907 ft 311 kts 301°
2026-05-07 14:52 63.87003 -20.00720 16636 ft 309 kts 301°
2026-05-07 14:52 63.87979 -20.05025 16361 ft 308 kts 301°
2026-05-07 14:53 63.88951 -20.09312 16078 ft 306 kts 301°
2026-05-07 14:53 63.89916 -20.13586 15792 ft 305 kts 301°
2026-05-07 14:53 63.90875 -20.17846 15505 ft 303 kts 301°
2026-05-07 14:53 63.91828 -20.22082 15218 ft 302 kts 301°
2026-05-07 14:54 63.92776 -20.26306 14933 ft 301 kts 301°
2026-05-07 14:54 63.93713 -20.30524 14642 ft 300 kts 298°
2026-05-07 14:54 63.94314 -20.35070 14344 ft 305 kts 282°
2026-05-07 14:54 63.94352 -20.39887 14059 ft 309 kts 267°
2026-05-07 14:55 63.94036 -20.44695 13768 ft 309 kts 264°
2026-05-07 14:55 63.93670 -20.49476 13481 ft 308 kts 264°
2026-05-07 14:55 63.93302 -20.54239 13206 ft 306 kts 264°
2026-05-07 14:55 63.92942 -20.58978 12926 ft 305 kts 264°
2026-05-07 14:56 63.92587 -20.63699 12649 ft 304 kts 264°
2026-05-07 14:56 63.92234 -20.68428 12370 ft 303 kts 263°
2026-05-07 14:56 63.91884 -20.73124 12089 ft 302 kts 263°
2026-05-07 14:56 63.91534 -20.77805 11809 ft 301 kts 263°
2026-05-07 14:57 63.91186 -20.82455 11534 ft 299 kts 263°
2026-05-07 14:57 63.90837 -20.87091 11248 ft 299 kts 263°
2026-05-07 14:57 63.90488 -20.91710 10976 ft 297 kts 263°
2026-05-07 14:57 63.90138 -20.96321 10697 ft 297 kts 263°
2026-05-07 14:58 63.89788 -21.00909 10415 ft 296 kts 263°
2026-05-07 14:58 63.89439 -21.05471 10173 ft 293 kts 263°
2026-05-07 14:58 63.89093 -21.09945 10143 ft 283 kts 263°
2026-05-07 14:58 63.88757 -21.14272 10133 ft 276 kts 263°
2026-05-07 14:59 63.88428 -21.18523 10021 ft 275 kts 263°
2026-05-07 14:59 63.88099 -21.22781 9754 ft 275 kts 263°
2026-05-07 14:59 63.87769 -21.27024 9503 ft 274 kts 263°
2026-05-07 14:59 63.87437 -21.31254 9258 ft 272 kts 263°
2026-05-07 15:00 63.87106 -21.35456 9011 ft 271 kts 263°
2026-05-07 15:00 63.86774 -21.39635 8767 ft 269 kts 263°
2026-05-07 15:00 63.86443 -21.43790 8526 ft 268 kts 263°
2026-05-07 15:00 63.86114 -21.47923 8290 ft 267 kts 263°
2026-05-07 15:01 63.85785 -21.52035 8055 ft 265 kts 263°
2026-05-07 15:01 63.85456 -21.56126 7822 ft 264 kts 263°
2026-05-07 15:01 63.85128 -21.60192 7594 ft 263 kts 263°
2026-05-07 15:01 63.84800 -21.64239 7373 ft 261 kts 263°
2026-05-07 15:02 63.84473 -21.68269 7140 ft 260 kts 262°
2026-05-07 15:02 63.84147 -21.72278 6908 ft 259 kts 262°
2026-05-07 15:02 63.83821 -21.76273 6684 ft 258 kts 262°
2026-05-07 15:02 63.83495 -21.80250 6459 ft 257 kts 262°
2026-05-07 15:03 63.83169 -21.84220 6235 ft 256 kts 261°
2026-05-07 15:03 63.82842 -21.88163 6009 ft 255 kts 261°
2026-05-07 15:03 63.82515 -21.92087 5798 ft 254 kts 261°
2026-05-07 15:03 63.82188 -21.95996 5579 ft 253 kts 261°
2026-05-07 15:04 63.81862 -21.99885 5362 ft 252 kts 261°
2026-05-07 15:04 63.81536 -22.03759 5154 ft 251 kts 262°
2026-05-07 15:04 63.81208 -22.07619 4932 ft 250 kts 260°
2026-05-07 15:04 63.80784 -22.11427 4707 ft 251 kts 255°
2026-05-07 15:05 63.80241 -22.15168 4477 ft 251 kts 253°
2026-05-07 15:05 63.79676 -22.18889 4262 ft 251 kts 253°
2026-05-07 15:05 63.79109 -22.22604 4040 ft 250 kts 253°
2026-05-07 15:05 63.78546 -22.26305 3823 ft 250 kts 253°
2026-05-07 15:06 63.77983 -22.30003 3607 ft 250 kts 253°
2026-05-07 15:06 63.77413 -22.33754 3456 ft 254 kts 254°
2026-05-07 15:06 63.76952 -22.37537 3426 ft 244 kts 271°
2026-05-07 15:06 63.77168 -22.41166 3324 ft 229 kts 294°
2026-05-07 15:07 63.77719 -22.44508 3121 ft 227 kts 296°
2026-05-07 15:07 63.78296 -22.47796 2909 ft 225 kts 296°
2026-05-07 15:07 63.78859 -22.51077 2704 ft 224 kts 296°
2026-05-07 15:07 63.79405 -22.54348 2510 ft 224 kts 295°
2026-05-07 15:08 63.79959 -22.57561 2448 ft 213 kts 306°
2026-05-07 15:08 63.80966 -22.59726 2442 ft 198 kts 342°
2026-05-07 15:08 63.82263 -22.60456 2457 ft 187 kts 358°
2026-05-07 15:08 63.83515 -22.60578 2460 ft 174 kts
2026-05-07 15:09 63.84654 -22.60549 2441 ft 156 kts
2026-05-07 15:09 63.85716 -22.60535 2322 ft 150 kts
2026-05-07 15:09 63.86731 -22.60533 2106 ft 143 kts
2026-05-07 15:09 63.87700 -22.60534 1905 ft 136 kts
2026-05-07 15:10 63.88618 -22.60536 1715 ft 129 kts
2026-05-07 15:10 63.89521 -22.60536 1553 ft 131 kts
2026-05-07 15:10 63.90425 -22.60537 1383 ft 130 kts
2026-05-07 15:10 63.91328 -22.60539 1208 ft 130 kts
2026-05-07 15:11 63.92231 -22.60542 1023 ft 130 kts
2026-05-07 15:11 63.93134 -22.60541 843 ft 130 kts
2026-05-07 15:11 63.94035 -22.60545 658 ft 130 kts
2026-05-07 15:11 63.94935 -22.60543 476 ft 130 kts
2026-05-07 15:12 63.95836 -22.60547 297 ft 130 kts
2026-05-07 15:12 63.96734 -22.60556 139 ft 128 kts
2026-05-07 15:12 63.97499 -22.60536 162 ft 89 kts
2026-05-07 15:12 63.97962 -22.60548 172 ft 47 kts 358°
2026-05-07 15:13 63.98151 -22.60671 170 ft 22 kts 338°
2026-05-07 15:13 63.98291 -22.60844 163 ft 23 kts 332°
2026-05-07 15:13 63.98445 -22.60960 160 ft 23 kts 359°
2026-05-07 15:13 63.98604 -22.60949 160 ft 22 kts
2026-05-07 15:14 63.98751 -22.60947 160 ft 20 kts
2026-05-07 15:14 63.98835 -22.60967 159 ft 9 kts 324°
2026-05-07 15:14 63.98859 -22.61121 157 ft 11 kts 279°
2026-05-07 15:14 63.98855 -22.61316 156 ft 12 kts 267°
2026-05-07 15:15 63.98853 -22.61524 155 ft 14 kts 271°
2026-05-07 15:15 63.98855 -22.61783 153 ft 17 kts 271°
2026-05-07 15:15 63.98855 -22.62075 153 ft 19 kts 270°
2026-05-07 15:15 63.98855 -22.62382 152 ft 19 kts 270°
2026-05-07 15:16 63.98855 -22.62661 149 ft 14 kts 269°
2026-05-07 15:16 63.98855 -22.62841 149 ft 7 kts 292°
2026-05-07 15:16 63.98896 -22.62872 149 ft 8 kts
2026-05-07 15:16 63.98966 -22.62831 149 ft 12 kts 18°
2026-05-07 15:17 63.99058 -22.62766 149 ft 14 kts 18°
2026-05-07 15:17 63.99146 -22.62701 149 ft 10 kts 28°
2026-05-07 15:17 63.99171 -22.62579 149 ft 9 kts 85°
2026-05-07 15:17 63.99186 -22.62480 150 ft 5 kts 31°
2026-05-07 15:18 63.99220 -22.62462 150 ft 5 kts
2026-05-07 15:18 63.99255 -22.62461 150 ft 3 kts
2026-05-07 15:18 63.99270 -22.62460 150 ft 0 kts
2026-05-07 15:18 63.99273 -22.62460 150 ft 0 kts